Location: Unspecified
(0.0000°N, 0.0000°E)
Time: 13:03:36
(UTC+00:00)

A-11 Canister half - All Passes

Search period start: 20 October 2014 00:00
Search period end: 30 October 2014 00:00
Orbit: 1525 x 1685 km, 47.3° (Epoch: 18 October)

Date Brightness Start Highest point End Pass type
(mag) Time Alt. Az. Time Alt. Az. Time Alt. Az.
20 Oct - 07:03:56 10° SSW 07:13:07 41° SE 07:21:58 10° ENE daylight
20 Oct - 09:08:54 10° WSW 09:18:00 43° NW 09:26:50 10° NNE daylight
20 Oct - 17:53:43 10° NNE 17:58:51 16° NE 18:04:03 10° E daylight
20 Oct - 19:54:28 10° NW 20:03:59 85° NE 20:13:53 10° SE visible
20 Oct - 22:02:48 10° W 22:09:15 20° SW 22:15:52 10° S visible
21 Oct - 06:42:30 10° SSW 06:51:33 39° SE 07:00:17 10° ENE daylight
21 Oct - 08:47:12 10° WSW 08:56:28 46° NW 09:05:27 10° NNE daylight
21 Oct - 17:32:44 10° NNE 17:37:16 14° NE 17:41:51 10° ENE daylight
21 Oct - 19:32:59 10° NW 19:42:28 80° NE 19:52:18 10° SE visible
21 Oct - 21:40:53 10° W 21:47:39 21° SW 21:54:38 10° S visible
22 Oct - 06:21:05 10° SSW 06:29:59 36° SE 06:38:35 10° ENE daylight
22 Oct - 08:25:30 10° WSW 08:34:55 50° NW 08:44:03 10° NNE daylight
22 Oct - 17:11:53 10° NNE 17:15:41 13° NE 17:19:30 10° ENE daylight
22 Oct - 19:11:30 10° NNW 19:20:56 75° NE 19:30:43 10° SE visible
22 Oct - 21:19:00 10° W 21:26:04 23° SW 21:33:21 10° S visible
23 Oct - 05:59:42 10° SSW 06:08:25 34° SE 06:16:52 10° ENE daylight
23 Oct - 08:03:50 10° SW 08:13:23 53° NW 08:22:38 10° NNE daylight
23 Oct - 16:51:15 10° NNE 16:54:05 12° NE 16:56:56 10° ENE daylight
23 Oct - 18:50:02 10° NNW 18:59:24 70° NE 19:09:07 10° SE visible
23 Oct - 20:57:09 10° W 21:04:29 25° SW 21:12:03 10° S visible
24 Oct - 05:38:18 10° S 05:46:51 31° SE 05:55:07 10° ENE daylight
24 Oct - 07:42:10 10° SW 07:51:51 57° NW 08:01:13 10° NNE daylight
24 Oct - 16:31:17 10° NE 16:32:29 10° NE 16:33:40 10° NE daylight
24 Oct - 18:28:35 10° NNW 18:37:53 65° NE 18:47:30 10° SE visible
24 Oct - 20:35:20 10° W 20:42:54 26° SW 20:50:43 10° S visible
25 Oct - 05:16:56 10° S 05:25:16 29° SE 05:33:21 10° ENE visible
25 Oct - 07:20:32 10° SW 07:30:19 61° NW 07:39:46 10° NNE daylight
25 Oct - 18:07:09 10° NNW 18:16:22 61° NE 18:25:52 10° SE visible
25 Oct - 20:13:33 10° WNW 20:21:20 28° SW 20:29:23 10° S visible
26 Oct - 04:55:35 10° S 05:03:41 27° SE 05:11:33 10° ENE visible
26 Oct - 06:58:53 10° SW 07:08:46 66° NW 07:18:19 10° NNE daylight
26 Oct - 09:12:13 10° WNW 09:14:14 11° NW 09:16:15 10° NNW daylight
26 Oct - 17:45:43 10° NNW 17:54:50 57° NE 18:04:14 10° SE daylight
26 Oct - 19:51:48 10° WNW 19:59:46 30° SW 20:08:01 10° S visible
27 Oct - 04:34:15 10° S 04:42:06 25° SE 04:49:44 10° E visible
27 Oct - 06:37:16 10° SW 06:47:14 70° NW 06:56:51 10° NNE daylight
27 Oct - 08:49:18 10° WNW 08:52:37 12° NW 08:55:55 10° NNW daylight
27 Oct - 17:24:18 10° NNW 17:33:19 53° NE 17:42:36 10° SE daylight
27 Oct - 19:30:03 10° WNW 19:38:12 33° SW 19:46:39 10° SSE visible
28 Oct - 04:12:57 10° S 04:20:30 24° SE 04:27:52 10° E visible
28 Oct - 06:15:40 10° SW 06:25:41 75° NW 06:35:23 10° NNE daylight
28 Oct - 08:26:48 10° WNW 08:31:01 13° NW 08:35:12 10° NNW daylight
28 Oct - 17:02:53 10° NNW 17:11:47 49° NE 17:20:56 10° ESE daylight
28 Oct - 19:08:21 10° WNW 19:16:39 35° SW 19:25:16 10° SSE visible
29 Oct - 03:51:40 10° S 03:58:54 22° SE 04:05:59 10° E visible
29 Oct - 05:54:04 10° SW 06:04:09 80° NW 06:13:54 10° NE daylight
29 Oct - 08:04:29 10° WNW 08:09:25 15° NW 08:14:18 10° NNW daylight
29 Oct - 16:41:29 10° NNW 16:50:16 46° NE 16:59:15 10° ESE daylight
29 Oct - 18:46:39 10° WNW 18:55:06 38° SW 19:03:52 10° SSE visible
